Find Starlink 34899

NORAD ID: 65323 Int'l Des: 2025-189 Owner: SPXS Country: US Constellation: starlink operational
LEOCIRCULAR

現在のビュー

3D地球を読み込み中...

About Starlink 34899

Starlink 34899 (NORAD 65323) is a starlink constellation satellite (v2 mini) launched Aug 27, 2025 by SPXS of US. It operates in LEO, CIRCULAR orbit with a mass of 575.00 kg.

次回通過

Passes for default location (London). Set your location on the main map for personalized predictions.

高度履歴

Loading altitude history...

軌道要素

1 65323U 25189A 26263.54931643 .00006291 00000-0 21427-3 0 9995
2 65323 53.1599 19.9959 0000923 67.9944 292.1156 15.31708638 60967
Epoch: Sep 20, 2026 • Age: 17 hours

現在のステータス

高度 471.8 km
遠地点 / 近地点 N/A
速度 7.63 km/s
衛星直下点 -2.51°S, 81.3°W
打ち上げ日 Aug 27, 2025
運用期間 1 year
タイプ internet

技術仕様

分類 Payload
質量 575.00 kg
乾燥質量 530.00 kg
長さ 0.30 m
スパン 29.00 m
形状 ? Box + pan
製造者 SPXS
バスタイプ Starlink V2MO
フェーズステータス In Orbit
所有者/国 SPXS/US

Most Searched